| time (UTC) | temp F | wind direction | speed knots | gust knots | rain 1hr in | rain 24hr in | rain mn in | humidity % | barometer mb |
| 20260504044532 | 39 | 274 | 0.0 | 0.0 | 0.00 | 0.00 | 0.00 | 72 | 1011.9 |
| 20260504043002 | 39 | 274 | 0.0 | 0.0 | 0.00 | 0.00 | 0.00 | 72 | 1011.8 |
| 20260504041559 | 38 | 274 | 0.0 | 0.0 | 0.00 | 0.00 | 0.00 | 71 | 1011.7 |
| 20260504040056 | 38 | 274 | 0.0 | 0.0 | 0.00 | 0.00 | 0.00 | 73 | 1011.6 |
| 20260504034554 | 37 | 274 | 0.0 | 0.0 | 0.00 | 0.00 | 0.00 | 74 | 1011.5 |
| 20260504033053 | 38 | 274 | 0.0 | 0.0 | 0.00 | 0.00 | 0.00 | 75 | 1011.4 |
| 20260504031552 | 38 | 274 | 0.0 | 0.0 | 0.00 | 0.00 | 0.00 | 74 | 1011.3 |
| 20260504030047 | 38 | 274 | 0.0 | 0.0 | 0.00 | 0.00 | 0.00 | 71 | 1011.2 |
| 20260504024548 | 38 | 274 | 0.0 | 0.0 | 0.00 | 0.00 | 0.00 | 68 | 1011.1 |
| 20260504023042 | 39 | 274 | 0.0 | 0.0 | 0.00 | 0.00 | 0.00 | 67 | 1011.0 |
| 20260504021539 | 39 | 274 | 0.0 | 0.0 | 0.00 | 0.00 | 0.00 | 66 | 1011.0 |
| 20260504020104 | 39 | 274 | 0.0 | 0.0 | 0.00 | 0.00 | 0.00 | 67 | 1010.9 |
| 20260504014518 | 40 | 274 | 0.0 | 0.0 | 0.00 | 0.00 | 0.00 | 68 | 1010.8 |
| 20260504013028 | 41 | 274 | 0.0 | 0.0 | 0.00 | 0.00 | 0.00 | 63 | 1010.6 |
| 20260504011548 | 42 | 274 | 0.0 | 0.0 | 0.00 | 0.00 | 0.00 | 61 | 1010.4 |
| 20260504010143 | 44 | 274 | 0.0 | 0.0 | 0.00 | 0.00 | 0.00 | 59 | 1010.2 |
| 20260504004600 | 47 | 274 | 0.0 | 0.0 | 0.00 | 0.00 | 0.00 | 54 | 1010.0 |
| 20260504003034 | 49 | 274 | 0.0 | 0.0 | 0.00 | 0.00 | 0.00 | 47 | 1009.9 |
| 20260504001529 | 50 | 274 | 0.0 | 0.0 | 0.00 | 0.00 | 0.00 | 49 | 1009.6 |
| 20260504000027 | 51 | 278 | 1.7 | 7.0 | 0.00 | 0.00 | 0.00 | 47 | 1009.4 |
| 20260503234526 | 51 | 304 | 4.3 | 10.4 | 0.00 | 0.00 | 0.00 | 48 | 1009.4 |
| 20260503233023 | 51 | 276 | 6.1 | 12.2 | 0.00 | 0.00 | 0.00 | 47 | 1009.3 |
| 20260503231520 | 52 | 284 | 5.2 | 11.3 | 0.00 | 0.00 | 0.00 | 46 | 1009.2 |
| 20260503230019 | 51 | 297 | 8.7 | 14.8 | 0.00 | 0.00 | 0.00 | 46 | 1009.1 |
| 20260503224517 | 52 | 259 | 11.3 | 17.4 | 0.00 | 0.00 | 0.00 | 44 | 1008.9 |
| 20260503223014 | 52 | 318 | 10.4 | 17.4 | 0.00 | 0.00 | 0.00 | 48 | 1008.7 |
| 20260503221511 | 51 | 300 | 11.3 | 16.5 | 0.00 | 0.00 | 0.00 | 46 | 1008.7 |
| 20260503220010 | 51 | 325 | 12.2 | 17.4 | 0.00 | 0.00 | 0.00 | 50 | 1008.4 |
| 20260503214503 | 51 | 300 | 13.9 | 20.9 | 0.00 | 0.00 | 0.00 | 47 | 1008.3 |
| 20260503213002 | 51 | 301 | 13.9 | 21.7 | 0.00 | 0.00 | 0.00 | 47 | 1008.1 |
| 20260503211600 | 51 | 289 | 13.0 | 21.7 | 0.00 | 0.00 | 0.00 | 45 | 1007.9 |
| 20260503210100 | 51 | 311 | 15.6 | 21.7 | 0.00 | 0.00 | 0.00 | 45 | 1007.8 |
| 20260503204557 | 51 | 303 | 10.4 | 21.7 | 0.00 | 0.00 | 0.00 | 48 | 1007.7 |
| 20260503203113 | 51 | 301 | 13.9 | 20.0 | 0.00 | 0.06 | 0.00 | 48 | 1007.6 |
| 20260503201555 | 51 | 251 | 10.4 | 18.2 | 0.00 | 0.06 | 0.00 | 50 | 1007.5 |
| 20260503200054 | 51 | 332 | 9.6 | 19.1 | 0.00 | 0.06 | 0.00 | 49 | 1007.3 |
| 20260503194551 | 51 | 282 | 8.7 | 20.9 | 0.00 | 0.06 | 0.00 | 47 | 1007.3 |
| 20260503193052 | 51 | 324 | 16.5 | 22.6 | 0.00 | 0.06 | 0.00 | 52 | 1007.2 |
| 20260503191552 | 51 | 293 | 13.0 | 18.2 | 0.00 | 0.06 | 0.00 | 53 | 1007.3 |
| 20260503190057 | 51 | 310 | 13.0 | 21.7 | 0.00 | 0.06 | 0.00 | 49 | 1007.3 |
| 20260503183045 | 50 | 306 | 13.0 | 20.9 | 0.00 | 0.06 | 0.00 | 50 | 1007.2 |
| 20260503181551 | 50 | 284 | 10.4 | 20.9 | 0.00 | 0.06 | 0.00 | 53 | 1007.3 |
| 20260503180051 | 50 | 298 | 15.6 | 20.9 | 0.00 | 0.06 | 0.00 | 51 | 1007.2 |
| 20260503174539 | 50 | 286 | 12.2 | 20.9 | 0.00 | 0.06 | 0.00 | 52 | 1007.2 |
| 20260503173039 | 50 | 292 | 13.9 | 20.9 | 0.00 | 0.06 | 0.00 | 52 | 1007.0 |
| 20260503171538 | 50 | 288 | 11.3 | 18.2 | 0.00 | 0.06 | 0.00 | 53 | 1007.1 |